AMX633 KSAT-MMMX

Flight info

Callsign AMX633
Flight time N/A
Altitude 32000
Route TJANO2 KAHAN DCT LRD DCT WEGUS DCT RIKAN DCT AGMUM DCT UMELO UT132 DARAN DARAN3A
Aircraft B38M/M-SDE1FGHILORVWXY/HB1

Departure

Time 2026-05-04 20:01
Airport San Antonio International Airport (KSAT)

Arrival

Time N/A
Airport Mexico City Benito Juárez International Airport (MMMX)
Time Latitude Longitude Altitude Speed Heading
2026-05-04 19:39 29.52729 -98.46979 820 ft 0 kts 311°
2026-05-04 19:50 29.52728 -98.46978 820 ft 1 kts 311°
2026-05-04 19:51 29.52719 -98.46966 820 ft 3 kts 311°
2026-05-04 19:51 29.52708 -98.46952 820 ft 3 kts 312°
2026-05-04 19:51 29.52693 -98.46939 820 ft 0 kts 335°
2026-05-04 19:51 29.52695 -98.46939 820 ft 1 kts 347°
2026-05-04 19:52 29.52699 -98.46938 820 ft 1 kts 27°
2026-05-04 19:52 29.52714 -98.46915 820 ft 7 kts 55°
2026-05-04 19:52 29.52757 -98.46909 820 ft 8 kts 328°
2026-05-04 19:52 29.52793 -98.46947 820 ft 8 kts 313°
2026-05-04 19:53 29.52844 -98.47011 820 ft 14 kts 313°
2026-05-04 19:53 29.52917 -98.47101 820 ft 17 kts 314°
2026-05-04 19:53 29.53004 -98.47205 820 ft 19 kts 309°
2026-05-04 19:53 29.53090 -98.47318 820 ft 19 kts 307°
2026-05-04 19:54 29.53165 -98.47446 820 ft 20 kts 310°
2026-05-04 19:54 29.53257 -98.47565 820 ft 20 kts 311°
2026-05-04 19:54 29.53352 -98.47688 820 ft 21 kts 311°
2026-05-04 19:54 29.53450 -98.47814 820 ft 21 kts 311°
2026-05-04 19:55 29.53549 -98.47946 820 ft 22 kts 311°
2026-05-04 19:55 29.53652 -98.48080 820 ft 23 kts 311°
2026-05-04 19:55 29.53757 -98.48218 820 ft 23 kts 311°
2026-05-04 19:55 29.53804 -98.48278 820 ft 0 kts 311°
2026-05-04 19:57 29.53804 -98.48279 820 ft 0 kts 311°
2026-05-04 19:58 29.53807 -98.48282 820 ft 6 kts 311°
2026-05-04 19:58 29.53885 -98.48384 820 ft 19 kts 311°
2026-05-04 19:58 29.53962 -98.48485 820 ft 15 kts 311°
2026-05-04 19:58 29.54030 -98.48572 820 ft 14 kts 311°
2026-05-04 19:59 29.54087 -98.48645 820 ft 11 kts 311°
2026-05-04 19:59 29.54135 -98.48678 820 ft 7 kts 17°
2026-05-04 19:59 29.54164 -98.48656 820 ft 3 kts 38°
2026-05-04 19:59 29.54188 -98.48632 820 ft 7 kts 43°
2026-05-04 20:00 29.54216 -98.48599 820 ft 6 kts 48°
2026-05-04 20:00 29.54239 -98.48534 820 ft 15 kts 103°
2026-05-04 20:00 29.54040 -98.48251 820 ft 79 kts 132°
2026-05-04 20:00 29.53525 -98.47590 821 ft 142 kts 132°
2026-05-04 20:01 29.52751 -98.46594 938 ft 185 kts 131°
2026-05-04 20:01 29.51866 -98.45486 1692 ft 191 kts 134°
2026-05-04 20:01 29.50867 -98.44497 2562 ft 194 kts 152°
2026-05-04 20:01 29.49497 -98.44227 3083 ft 206 kts 186°
2026-05-04 20:02 29.48173 -98.44907 3608 ft 223 kts 217°
2026-05-04 20:02 29.47280 -98.46398 4246 ft 240 kts 245°
2026-05-04 20:02 29.47089 -98.48364 4884 ft 258 kts 269°
2026-05-04 20:02 29.47301 -98.50446 5620 ft 268 kts 273°
2026-05-04 20:03 29.47203 -98.52574 6340 ft 267 kts 251°
2026-05-04 20:03 29.46294 -98.54399 7152 ft 265 kts 227°
2026-05-04 20:03 29.44765 -98.55586 7875 ft 269 kts 204°
2026-05-04 20:03 29.42975 -98.56269 8591 ft 275 kts 198°
2026-05-04 20:04 29.41114 -98.56904 9216 ft 282 kts 198°
2026-05-04 20:04 29.39224 -98.57597 9831 ft 288 kts 200°
2026-05-04 20:04 29.37303 -98.58303 9964 ft 291 kts 200°
2026-05-04 20:04 29.35316 -98.59033 10207 ft 308 kts 200°
2026-05-04 20:05 29.33221 -98.59796 10568 ft 323 kts 200°
2026-05-04 20:05 29.31023 -98.60589 10903 ft 338 kts 200°
2026-05-04 20:05 29.28723 -98.61412 11198 ft 353 kts 200°
2026-05-04 20:05 29.26323 -98.62268 11471 ft 368 kts 200°
2026-05-04 20:06 29.23861 -98.63143 11709 ft 382 kts 200°
2026-05-04 20:06 29.21263 -98.64061 12140 ft 389 kts 200°
2026-05-04 20:06 29.18697 -98.64960 12671 ft 392 kts 200°
2026-05-04 20:06 29.16075 -98.65884 13189 ft 395 kts 201°
2026-05-04 20:07 29.13370 -98.66973 13714 ft 398 kts 204°
2026-05-04 20:07 29.10797 -98.68051 14220 ft 400 kts 204°
2026-05-04 20:07 29.08170 -98.69131 14699 ft 403 kts 204°
2026-05-04 20:07 29.05515 -98.70204 15007 ft 406 kts 204°
2026-05-04 20:08 29.02846 -98.71274 15450 ft 408 kts 204°
2026-05-04 20:08 29.00149 -98.72340 15894 ft 410 kts 204°
2026-05-04 20:08 28.97434 -98.73399 16300 ft 414 kts 204°
2026-05-04 20:08 28.94834 -98.74746 16667 ft 408 kts 216°
2026-05-04 20:09 28.92474 -98.76547 17065 ft 409 kts 220°
2026-05-04 20:09 28.90142 -98.78390 17469 ft 410 kts 221°
2026-05-04 20:09 28.87824 -98.80304 17854 ft 411 kts 222°
2026-05-04 20:09 28.85555 -98.82301 18219 ft 412 kts 224°
2026-05-04 20:10 28.83294 -98.84318 18579 ft 412 kts 226°
2026-05-04 20:10 28.81260 -98.86597 18909 ft 412 kts 228°
2026-05-04 20:10 28.78888 -98.88520 19284 ft 420 kts 219°
2026-05-04 20:10 28.76390 -98.90287 19576 ft 424 kts 218°
2026-05-04 20:11 28.73848 -98.92009 19873 ft 427 kts 217°
2026-05-04 20:11 28.71274 -98.93720 20168 ft 430 kts 217°
2026-05-04 20:11 28.68679 -98.95422 20462 ft 432 kts 217°
2026-05-04 20:11 28.66061 -98.97129 20737 ft 434 kts 217°
2026-05-04 20:12 28.63433 -98.98838 20987 ft 436 kts 217°
2026-05-04 20:12 28.60788 -99.00554 21276 ft 438 kts 217°
2026-05-04 20:12 28.58175 -99.02250 21538 ft 439 kts 217°
2026-05-04 20:12 28.55513 -99.03977 21804 ft 441 kts 217°
2026-05-04 20:13 28.52850 -99.05703 22047 ft 442 kts 217°
2026-05-04 20:13 28.50167 -99.07440 22289 ft 444 kts 217°
2026-05-04 20:13 28.47475 -99.09183 22512 ft 446 kts 217°
2026-05-04 20:13 28.44774 -99.10931 22740 ft 448 kts 217°
2026-05-04 20:14 28.42061 -99.12685 22965 ft 449 kts 217°
2026-05-04 20:14 28.39338 -99.14445 23188 ft 451 kts 217°
2026-05-04 20:14 28.36606 -99.16209 23417 ft 452 kts 217°
2026-05-04 20:14 28.33872 -99.17974 23643 ft 453 kts 217°
2026-05-04 20:15 28.31131 -99.19742 23846 ft 454 kts 217°
2026-05-04 20:15 28.28261 -99.21318 24039 ft 467 kts 207°
2026-05-04 20:15 28.25088 -99.22260 24298 ft 473 kts 200°
2026-05-04 20:15 28.21855 -99.23047 24449 ft 477 kts 199°
2026-05-04 20:16 28.18627 -99.23793 24627 ft 479 kts 199°
2026-05-04 20:16 28.15355 -99.24527 24814 ft 481 kts 198°
2026-05-04 20:16 28.12024 -99.25262 24998 ft 482 kts 198°
2026-05-04 20:16 28.08771 -99.25977 25183 ft 483 kts 198°
2026-05-04 20:17 28.05465 -99.26703 25369 ft 485 kts 198°
2026-05-04 20:17 28.02155 -99.27429 25554 ft 486 kts 198°
2026-05-04 20:17 27.98824 -99.28159 25734 ft 487 kts 198°
2026-05-04 20:17 27.95490 -99.28888 25886 ft 489 kts 198°
2026-05-04 20:18 27.92149 -99.29620 26057 ft 490 kts 198°
2026-05-04 20:18 27.88800 -99.30353 26277 ft 490 kts 198°
2026-05-04 20:18 27.85449 -99.31085 26535 ft 490 kts 198°
2026-05-04 20:18 27.82107 -99.31815 26796 ft 489 kts 198°
2026-05-04 20:19 27.78770 -99.32549 27062 ft 487 kts 199°
2026-05-04 20:19 27.75497 -99.33513 27270 ft 484 kts 202°
2026-05-04 20:19 27.72258 -99.34500 27610 ft 483 kts 202°
2026-05-04 20:19 27.68997 -99.35475 27908 ft 482 kts 202°
2026-05-04 20:20 27.65759 -99.36436 28196 ft 482 kts 202°
2026-05-04 20:20 27.62521 -99.37393 28488 ft 481 kts 202°
2026-05-04 20:20 27.59285 -99.38350 28787 ft 480 kts 202°
2026-05-04 20:20 27.56055 -99.39306 29100 ft 479 kts 203°
2026-05-04 20:21 27.53002 -99.40672 29319 ft 464 kts 216°
2026-05-04 20:21 27.50365 -99.42673 29549 ft 450 kts 229°
2026-05-04 20:21 27.45833 -99.47370 30222 ft 456 kts 219°
2026-05-04 20:22 27.42968 -99.48968 30614 ft 465 kts 209°
2026-05-04 20:22 27.39826 -99.49988 30943 ft 475 kts 199°
2026-05-04 20:22 27.36508 -99.50405 31192 ft 488 kts 187°
2026-05-04 20:22 27.33116 -99.50385 31438 ft 485 kts 190°
2026-05-04 20:23 27.29748 -99.50629 31656 ft 484 kts 192°
2026-05-04 20:23 27.26395 -99.50938 31949 ft 483 kts 192°
2026-05-04 20:23 27.19615 -99.51637 31952 ft 492 kts 192°
2026-05-04 20:24 27.12850 -99.52365 31954 ft 492 kts 192°
2026-05-04 20:24 27.06041 -99.53100 31956 ft 492 kts 192°
2026-05-04 20:25 26.99226 -99.53834 31957 ft 491 kts 192°
2026-05-04 20:25 26.92436 -99.54565 31959 ft 490 kts 192°
2026-05-04 20:26 26.85642 -99.55295 31958 ft 489 kts 192°
2026-05-04 20:26 26.80002 -99.55900 31959 ft 489 kts 192°
2026-05-04 20:27 26.73227 -99.56627 31959 ft 489 kts 192°
2026-05-04 20:27 26.66446 -99.57353 31961 ft 489 kts 192°
2026-05-04 20:28 26.59681 -99.58077 31963 ft 488 kts 192°
2026-05-04 20:28 26.52928 -99.58808 31963 ft 487 kts 192°
2026-05-04 20:29 26.46183 -99.59553 31963 ft 487 kts 192°
2026-05-04 20:29 26.39440 -99.60296 31964 ft 487 kts 192°
2026-05-04 20:30 26.32700 -99.61038 31971 ft 486 kts 192°
2026-05-04 20:30 26.25963 -99.61777 31972 ft 486 kts 192°
2026-05-04 20:31 26.19243 -99.62516 31973 ft 485 kts 192°
2026-05-04 20:31 26.12522 -99.63252 31974 ft 485 kts 192°
2026-05-04 20:32 26.05841 -99.63984 31975 ft 485 kts 191°
2026-05-04 20:32 25.99129 -99.64718 31977 ft 485 kts 191°
2026-05-04 20:33 25.92403 -99.65453 31978 ft 485 kts 191°
2026-05-04 20:33 25.85693 -99.66183 31977 ft 485 kts 191°
2026-05-04 20:34 25.78961 -99.66910 31980 ft 485 kts 191°
2026-05-04 20:34 25.72250 -99.67633 31988 ft 485 kts 191°
2026-05-04 20:35 25.65535 -99.68356 31989 ft 485 kts 191°
2026-05-04 20:35 25.58862 -99.69074 31988 ft 485 kts 191°
2026-05-04 20:36 25.52127 -99.69798 31990 ft 486 kts 191°
2026-05-04 20:36 25.45397 -99.70520 31992 ft 486 kts 191°
2026-05-04 20:37 25.38672 -99.71241 31974 ft 486 kts 191°
2026-05-04 20:37 25.31934 -99.71963 31976 ft 486 kts 191°
2026-05-04 20:38 25.25202 -99.72683 31976 ft 486 kts 191°
2026-05-04 20:38 25.18465 -99.73403 31975 ft 487 kts 191°
2026-05-04 20:39 25.11724 -99.74122 31975 ft 486 kts 191°
2026-05-04 20:39 25.04977 -99.74841 31974 ft 487 kts 191°
2026-05-04 20:40 24.98226 -99.75561 31973 ft 487 kts 191°
2026-05-04 20:40 24.91478 -99.76279 31973 ft 488 kts 191°
2026-05-04 20:41 24.84722 -99.76997 31972 ft 488 kts 191°
2026-05-04 20:41 24.77967 -99.77713 31970 ft 488 kts 190°
2026-05-04 20:42 24.71209 -99.78430 31968 ft 488 kts 190°
2026-05-04 20:42 24.64498 -99.79141 31967 ft 488 kts 190°
2026-05-04 20:43 24.57690 -99.79861 31965 ft 488 kts 190°
2026-05-04 20:43 24.50928 -99.80576 31963 ft 488 kts 190°
2026-05-04 20:44 24.44199 -99.81286 31963 ft 488 kts 190°
2026-05-04 20:44 24.37432 -99.82000 31961 ft 488 kts 190°
2026-05-04 20:45 24.30659 -99.82713 31960 ft 489 kts 190°
2026-05-04 20:45 24.23844 -99.83431 31959 ft 489 kts 190°
2026-05-04 20:46 24.17116 -99.84138 31959 ft 489 kts 190°
2026-05-04 20:46 24.10334 -99.84850 31959 ft 488 kts 190°
2026-05-04 20:47 24.03564 -99.85560 31959 ft 488 kts 190°
2026-05-04 20:47 23.96799 -99.86269 31959 ft 488 kts 190°
2026-05-04 20:48 23.90033 -99.86977 31960 ft 488 kts 190°
2026-05-04 20:48 23.83262 -99.87685 31961 ft 488 kts 190°
2026-05-04 20:49 23.76486 -99.88393 31981 ft 489 kts 190°
2026-05-04 20:49 23.69714 -99.89100 31983 ft 488 kts 190°
2026-05-04 20:50 23.62943 -99.89806 31984 ft 488 kts 190°
2026-05-04 20:50 23.56180 -99.90510 31987 ft 488 kts 189°
2026-05-04 20:51 23.49456 -99.91210 31993 ft 489 kts 189°
2026-05-04 20:51 23.42790 -99.91812 31986 ft 492 kts 184°
2026-05-04 20:52 23.35936 -99.91495 32003 ft 494 kts 181°
2026-05-04 20:52 23.29066 -99.91115 32007 ft 494 kts 181°
2026-05-04 20:53 23.22201 -99.90732 32013 ft 494 kts 181°
2026-05-04 20:53 23.15331 -99.90350 32019 ft 494 kts 181°
2026-05-04 20:54 23.08463 -99.89967 32027 ft 494 kts 180°
2026-05-04 20:54 23.01595 -99.89586 32034 ft 494 kts 180°
2026-05-04 20:55 22.94781 -99.89207 32040 ft 493 kts 180°
2026-05-04 20:55 22.87937 -99.88827 32047 ft 493 kts 180°